[[{"header":{"parameterUnit":"m.s-1","parameterCategory":1,"la1":30.2991,"la2":30.254,"lo1":-89.0895,"lo2":-89.0444,"dy":0.0017,"dx":0.0017,"nx":28,"ny":28,"refTime":"2023-11-01T03:00:00:Z","depth":0,"parameterNumber":2,"parameterNumberName":"U-component_of_WINDS"},"data":[0,0,0,0,0,0,0,0,0,0,0,0,0,0,0,0,0,0,0,0,0,0,0,0,0,0,0,0,0,0,0,0,0,0,0,0,0,0,0,0,0,0,0,0,0,0,0,0,0,0,0,0,0,0,0,0,0,0,-2.1565,-2.1565,0,-2.1574,-2.1574,-2.1574,-2.1533,-2.1531,-2.153,-2.1529,-2.1538,-2.1539,-2.1541,0,0,0,0,0,0,0,0,0,0,0,0,0,-2.1511,-2.1512,-2.1565,-2.1565,-2.1565,-2.1574,-2.1574,-2.1574,-2.1533,-2.1531,-2.153,-2.1528,-2.1537,-2.1539,-2.1541,0,0,0,0,0,0,0,0,0,0,0,0,0,-2.1529,-2.1512,-2.1565,-2.1546,-2.1544,-2.1574,-2.1574,-2.1574,-2.1533,-2.1531,-2.1529,-2.1528,-2.1537,-2.1539,-2.1541,-2.159,0,0,-2.1547,-2.1548,0,0,0,0,0,0,0,0,-2.1528,-2.1531,-2.1548,-2.1547,-2.1545,-2.155,-2.1558,-2.158,-2.1534,-2.1537,-2.1529,-2.1527,-2.1544,-2.1545,-2.1551,-2.1591,-2.1591,-2.1547,-2.1549,-2.155,-2.155,0,0,0,0,0,0,0,-2.1526,-2.153,-2.1569,-2.1549,-2.1547,-2.1536,-2.1537,-2.1562,-2.155,-2.1537,-2.1534,-2.1535,-2.1542,-2.1549,-2.1551,-2.1591,-2.1547,-2.1549,-2.155,-2.1551,-2.1672,-2.1674,0,0,0,0,0,0,-2.1528,-2.1529,-2.1568,-2.1569,-2.1532,-2.1539,-2.1539,-2.1551,-2.155,-2.1548,-2.1537,-2.1533,-2.1546,-2.1548,-2.1551,-2.1608,-2.155,-2.1551,-2.1553,-2.167,-2.1672,-2.1674,0,0,0,0,0,0,-2.1527,-2.1532,-2.1568,-2.1548,-2.1552,-2.1541,-2.1555,-2.1552,-2.1558,-2.155,-2.1548,-2.1546,-2.1545,-2.1548,-2.1581,-2.1608,-2.1552,-2.1554,-2.1668,-2.1671,-2.1673,-2.1724,0,0,0,0,0,0,-2.1525,-2.1532,-2.155,-2.1549,-2.1553,-2.1598,-2.1556,-2.1553,-2.1562,-2.1557,-2.1558,-2.1556,-2.1544,-2.1578,-2.1583,-2.161,-2.1556,-2.1665,-2.1669,-2.1672,-2.172,-2.1729,-2.1736,0,0,0,0,0,-2.1524,-2.1564,-2.1552,-2.1557,-2.1577,-2.16,-2.1602,-2.1587,-2.1564,-2.1583,-2.1578,-2.1556,-2.1604,-2.1582,-2.1587,-2.1615,-2.1663,-2.1668,-2.1672,-2.1717,-2.1727,-2.1736,0,0,0,0,0,0,-2.1569,-2.1564,-2.155,-2.1591,-2.1596,-2.1593,-2.1616,-2.1598,-2.161,-2.1605,-2.1586,-2.1586,-2.1623,-2.1622,-2.1597,-2.1663,-2.163,-2.1635,-2.1662,-2.1672,-2.1679,-2.1679,-2.1558,0,0,0,0,0,-2.1584,-2.1604,-2.1598,-2.1635,-2.1638,-2.1627,-2.1636,-2.1624,-2.1629,-2.1631,-2.1628,-2.1633,-2.1649,-2.166,-2.1675,-2.172,-2.1719,-2.1742,-2.1749,-2.1756,-2.1761,-2.1785,-2.1795,-2.1689,-2.1689,-2.1689,0,0,-2.1615,-2.1615,-2.1628,-2.1644,-2.1647,-2.1667,-2.1629,-2.1652,-2.1667,-2.1634,-2.1665,-2.1663,-2.1668,-2.1707,-2.1724,-2.1707,-2.1791,-2.1762,-2.1767,-2.1769,-2.1791,-2.1801,-2.181,-2.1692,-2.1691,-2.1691,0,0,-2.1682,-2.1684,-2.1715,-2.1718,-2.1723,-2.1715,-2.1722,-2.1721,-2.1719,-2.175,-2.1725,-2.1743,-2.1771,-2.1775,-2.1781,-2.1849,-2.183,-2.1854,-2.1896,-2.1919,-2.1928,-2.1935,-2.196,-2.1969,-2.1859,-2.186,-2.186,0,-2.172,-2.1751,-2.1733,-2.1758,-2.1766,-2.1737,-2.1768,-2.1772,-2.1781,-2.1787,-2.1768,-2.1803,-2.1804,-2.1844,-2.1861,-2.1866,-2.1874,-2.1855,-2.1928,-2.1935,-2.1942,-2.1965,-2.1975,-2.1863,-2.1862,-2.1862,-2.1862,0,-2.1797,-2.1819,-2.1843,-2.1853,-2.1863,-2.1891,-2.1878,-2.1891,-2.1877,-2.1871,-2.1903,-2.1903,-2.1917,-2.1925,-2.1912,-2.1963,-2.1953,-2.1931,-2.1898,-2.1955,-2.1977,-2.1986,-2.1867,-2.1866,-2.1865,-2.1864,0,0,-2.1894,-2.1894,-2.1903,-2.1907,-2.1909,-2.1926,-2.1952,-2.1966,-2.1977,-2.1984,-2.2006,-2.203,-2.201,-2.2017,-2.2004,-2.2025,-2.208,-2.2001,-2.2001,-2.2016,-2.2136,-2.2153,-2.2164,-2.2066,-2.2068,-2.2069,-2.2136,0,-2.196,-2.2006,-2.1991,-2.2038,-2.2057,-2.203,-2.2053,-2.2057,-2.2052,-2.2067,-2.2061,-2.2079,-2.2051,-2.2055,-2.2074,-2.2069,-2.2104,-2.2064,-2.2087,-2.2088,-2.2088,-2.2175,-2.2193,-2.2256,-2.2144,-2.2146,-2.2147,0,-2.2044,-2.2055,-2.2103,-2.2102,-2.211,-2.2131,-2.2143,-2.2158,-2.2162,-2.2156,-2.2164,-2.2147,-2.2172,-2.2139,-2.2174,-2.2147,-2.2156,-2.2155,-2.2157,-2.2159,-2.2121,-2.218,-2.2275,-2.2285,-2.216,-2.2159,-2.2158,0,-2.2111,-2.2137,-2.2169,-2.2174,-2.2173,-2.2189,-2.2189,-2.2191,-2.2201,-2.221,-2.2216,-2.2229,-2.2236,-2.2246,-2.2232,-2.2209,-2.227,-2.2235,-2.2266,-2.2267,-2.2281,-2.2281,-2.238,-2.2286,-2.2285,-2.2285,-2.2285,0,-2.2187,-2.2218,-2.2199,-2.222,-2.2253,-2.2235,-2.2269,-2.2266,-2.2268,-2.2287,-2.2263,-2.2282,-2.2263,-2.2279,-2.2268,-2.23,-2.2303,-2.2299,-2.2296,-2.2302,-2.2303,-2.2308,-2.2303,-2.2288,-2.2287,-2.2287,-2.2286,0,-2.2267,-2.2256,-2.229,-2.2287,-2.2287,-2.2312,-2.2309,-2.2327,-2.232,-2.2344,-2.2349,-2.2338,-2.2356,-2.2343,-2.2361,-2.2354,-2.2395,-2.2386,-2.2394,-2.2392,-2.2425,-2.2422,-2.2531,-2.2545,-2.2441,-2.2442,-2.2443,0,-2.2317,-2.234,-2.234,-2.2351,-2.2353,-2.2371,-2.238,-2.2363,-2.2374,-2.238,-2.2397,-2.2413,-2.2425,-2.2455,-2.2449,-2.2462,-2.2453,-2.2491,-2.2455,-2.246,-2.2455,-2.2454,-2.2456,-2.2498,-2.25,-2.2501,-2.2501,0,-2.2407,-2.24,-2.2414,-2.2427,-2.2439,-2.2448,-2.2455,-2.2465,-2.2448,-2.2461,-2.2479,-2.2489,-2.2507,-2.2523,-2.2534,-2.2534,-2.2515,-2.2512,-2.2521,-2.2527,-2.2531,-2.253,-2.2415,-2.251,-2.2509,-2.2509,-2.2508,-2.2508,-2.2474,-2.2493,-2.2496,-2.2513,-2.2516,-2.2523,-2.254,-2.2535,-2.255,-2.2564,-2.2553,-2.2575,-2.2577,-2.259,-2.2593,-2.261,-2.2594,-2.2606,-2.2609,-2.2613,-2.2617,-2.2528,-2.2612,-2.2611,-2.2611,-2.2611,-2.2611,0,-2.2563,-2.2563,-2.2579,-2.2589,-2.2603,-2.2583,-2.259,-2.2602,-2.2622,-2.2626,-2.2638,-2.2659,-2.2675,-2.2669,-2.2683,-2.2697,-2.2689,-2.2702,-2.2701,-2.2701,-2.263,-2.2622,-2.2708,-2.2708,-2.2708,-2.2708,-2.2708,-2.2708,-2.2611,-2.2643,-2.2636,-2.2669,-2.2669,-2.2691,-2.2696,-2.2702,-2.2706,-2.273,-2.2743,-2.2739,-2.274,-2.2753,-2.2767,-2.2765,-2.2771,-2.2787,-2.2782,-2.2716,-2.2706,-2.2697,-2.2689,-2.2788,-2.2789,-2.2852,-2.2852,-2.2853]},{"header":{"parameterUnit":"m.s-1","parameterCategory":1,"la1":30.2991,"la2":30.254,"lo1":-89.0895,"lo2":-89.0444,"dy":0.0017,"dx":0.0017,"nx":28,"ny":28,"refTime":"2023-11-01T03:00:00:Z","depth":0,"parameterNumber":3,"parameterNumberName":"V-component_of_WINDS"},"data":[0,0,0,0,0,0,0,0,0,0,0,0,0,0,0,0,0,0,0,0,0,0,0,0,0,0,0,0,0,0,0,0,0,0,0,0,0,0,0,0,0,0,0,0,0,0,0,0,0,0,0,0,0,0,0,0,0,0,-6.792,-6.7921,0,-6.7995,-6.7995,-6.7996,-6.7953,-6.7951,-6.7949,-6.7947,-6.8018,-6.8021,-6.8025,0,0,0,0,0,0,0,0,0,0,0,0,0,-6.7736,-6.774,-6.792,-6.7921,-6.7922,-6.7994,-6.7995,-6.7996,-6.7954,-6.7951,-6.7949,-6.7946,-6.8016,-6.8021,-6.8025,0,0,0,0,0,0,0,0,0,0,0,0,0,-6.7814,-6.7741,-6.792,-6.791,-6.7909,-6.7994,-6.7996,-6.7997,-6.7954,-6.7951,-6.7948,-6.7945,-6.8015,-6.802,-6.8026,-6.8124,0,0,-6.8043,-6.8046,0,0,0,0,0,0,0,0,-6.781,-6.7821,-6.791,-6.7911,-6.791,-6.7962,-6.7956,-6.8039,-6.7955,-6.7937,-6.7947,-6.7943,-6.8001,-6.8008,-6.8028,-6.8127,-6.813,-6.8044,-6.8047,-6.805,-6.8051,0,0,0,0,0,0,0,-6.7804,-6.7817,-6.7949,-6.7912,-6.7912,-6.79,-6.7907,-6.7972,-6.7985,-6.7938,-6.7935,-6.7945,-6.8,-6.8023,-6.803,-6.8131,-6.8044,-6.8049,-6.8052,-6.8055,-6.8314,-6.8318,0,0,0,0,0,0,-6.78,-6.7813,-6.7947,-6.7952,-6.7852,-6.7905,-6.7914,-6.7948,-6.7985,-6.7987,-6.7948,-6.7943,-6.8015,-6.8023,-6.8032,-6.815,-6.805,-6.8055,-6.8058,-6.8311,-6.8315,-6.8319,0,0,0,0,0,0,-6.7797,-6.7813,-6.7944,-6.7882,-6.7898,-6.7912,-6.7951,-6.7951,-6.7974,-6.7992,-6.7993,-6.7969,-6.8013,-6.8024,-6.8102,-6.8151,-6.8058,-6.8063,-6.8307,-6.8312,-6.8317,-6.8385,0,0,0,0,0,0,-6.7791,-6.7812,-6.785,-6.7883,-6.7901,-6.8015,-6.7954,-6.7955,-6.7984,-6.7979,-6.8012,-6.8014,-6.8011,-6.8094,-6.8108,-6.8158,-6.8067,-6.8302,-6.8309,-6.8315,-6.8379,-6.8392,-6.8404,0,0,0,0,0,-6.7785,-6.7865,-6.7852,-6.7869,-6.795,-6.8017,-6.8028,-6.8024,-6.7989,-6.8027,-6.8038,-6.8013,-6.8144,-6.8102,-6.8117,-6.817,-6.8299,-6.8307,-6.8315,-6.8373,-6.839,-6.8404,0,0,0,0,0,0,-6.7835,-6.7869,-6.7855,-6.7948,-6.7981,-6.801,-6.8058,-6.8041,-6.8083,-6.8075,-6.8067,-6.8075,-6.8157,-6.8171,-6.8123,-6.8267,-6.8216,-6.8227,-6.8255,-6.8271,-6.8283,-6.8278,-6.8072,0,0,0,0,0,-6.7857,-6.7911,-6.7937,-6.8017,-6.8034,-6.8043,-6.8073,-6.8067,-6.81,-6.8112,-6.813,-6.816,-6.8208,-6.824,-6.8285,-6.838,-6.8387,-6.8424,-6.8437,-6.8447,-6.8457,-6.8509,-6.8526,-6.8344,-6.8344,-6.8344,0,0,-6.7903,-6.7928,-6.7962,-6.8027,-6.8052,-6.8107,-6.8055,-6.8115,-6.8155,-6.8121,-6.8196,-6.821,-6.8244,-6.8331,-6.837,-6.8345,-6.8508,-6.8457,-6.8465,-6.8469,-6.8519,-6.8536,-6.8551,-6.835,-6.8349,-6.8348,0,0,-6.8014,-6.8039,-6.8109,-6.8135,-6.8173,-6.8179,-6.8196,-6.8229,-6.8237,-6.8314,-6.8289,-6.8336,-6.8419,-6.8444,-6.8468,-6.8591,-6.8569,-6.8605,-6.8671,-6.8722,-6.8736,-6.8749,-6.8794,-6.881,-6.8615,-6.8615,-6.8615,0,-6.8066,-6.815,-6.8146,-6.8209,-6.8238,-6.8212,-6.8282,-6.8307,-6.8357,-6.8377,-6.8349,-6.8453,-6.8474,-6.8568,-6.8598,-6.8618,-6.8636,-6.8602,-6.8735,-6.8748,-6.8759,-6.8802,-6.8818,-6.8619,-6.8619,-6.8619,-6.8618,0,-6.8211,-6.827,-6.8321,-6.8374,-6.8408,-6.8474,-6.848,-6.8515,-6.8507,-6.8515,-6.8593,-6.8617,-6.8667,-6.8689,-6.868,-6.8782,-6.8765,-6.8736,-6.8685,-6.8781,-6.8821,-6.8837,-6.8626,-6.8624,-6.8623,-6.8622,0,0,-6.8356,-6.8407,-6.8426,-6.845,-6.8491,-6.8535,-6.86,-6.8651,-6.8682,-6.8717,-6.8771,-6.8842,-6.8816,-6.8843,-6.8837,-6.8882,-6.8979,-6.8847,-6.8848,-6.8871,-6.9092,-6.9115,-6.9134,-6.8964,-6.8967,-6.897,-6.909,0,-6.8471,-6.8587,-6.8586,-6.8692,-6.8746,-6.8722,-6.8778,-6.8809,-6.8818,-6.8864,-6.8874,-6.8925,-6.8886,-6.8903,-6.8946,-6.8958,-6.9023,-6.8949,-6.9013,-6.9016,-6.9007,-6.9154,-6.9178,-6.929,-6.9105,-6.9108,-6.911,0,-6.8621,-6.8665,-6.8777,-6.8812,-6.8834,-6.8885,-6.8932,-6.8977,-6.901,-6.9014,-6.9046,-6.9033,-6.9097,-6.9044,-6.9132,-6.9082,-6.9108,-6.9118,-6.9122,-6.9128,-6.9069,-6.9165,-6.9325,-6.9343,-6.9134,-6.9132,-6.913,0,-6.8717,-6.8803,-6.8882,-6.8903,-6.8945,-6.8981,-6.9,-6.9031,-6.9062,-6.9103,-6.9123,-6.9169,-6.9195,-6.9231,-6.9231,-6.9192,-6.9321,-6.9267,-6.9325,-6.9325,-6.9354,-6.9352,-6.9521,-6.9369,-6.9369,-6.9369,-6.9368,0,-6.8846,-6.8916,-6.8926,-6.8974,-6.9052,-6.9049,-6.9125,-6.914,-6.9168,-6.9218,-6.9199,-6.9246,-6.9243,-6.929,-6.929,-6.9363,-6.9374,-6.9379,-6.9378,-6.9381,-6.9381,-6.9399,-6.9391,-6.9373,-6.9372,-6.9371,-6.9371,0,-6.8966,-6.8976,-6.906,-6.9094,-6.9104,-6.9159,-6.9187,-6.9233,-6.9241,-6.9305,-6.9319,-6.9332,-6.9387,-6.9391,-6.9452,-6.9452,-6.9542,-6.9532,-6.9532,-6.953,-6.9589,-6.9583,-6.9776,-6.9801,-6.9632,-6.9634,-6.9635,0,-6.9048,-6.9102,-6.9142,-6.9176,-6.9198,-6.9251,-6.9284,-6.9283,-6.9317,-6.9361,-6.9401,-6.9454,-6.9497,-6.9585,-6.9599,-6.9646,-6.9638,-6.9702,-6.9645,-6.9646,-6.964,-6.9637,-6.9643,-6.9713,-6.9715,-6.9716,-6.9718,0,-6.9194,-6.9196,-6.9245,-6.9297,-6.9337,-6.9376,-6.9413,-6.944,-6.9444,-6.9483,-6.9541,-6.9574,-6.9639,-6.9692,-6.9739,-6.9756,-6.9738,-6.9736,-6.9752,-6.9756,-6.9754,-6.9757,-6.9563,-6.9731,-6.973,-6.9729,-6.9728,-6.9728,-6.9298,-6.9345,-6.9382,-6.9437,-6.9465,-6.95,-6.9545,-6.9561,-6.9609,-6.9664,-6.9659,-6.9723,-6.9755,-6.9816,-6.9837,-6.9886,-6.9864,-6.9887,-6.9893,-6.9899,-6.9906,-6.9746,-6.9894,-6.9893,-6.9893,-6.9893,-6.9893,0,-6.9443,-6.9466,-6.9517,-6.9571,-6.9614,-6.9595,-6.9635,-6.9672,-6.9729,-6.9762,-6.9805,-6.9871,-6.9922,-6.9941,-6.999,-7.0026,-7.0019,-7.0039,-7.0036,-7.0041,-6.9922,-6.9903,-7.0044,-7.0044,-7.0044,-7.0044,-7.0044,-7.0044,-6.9524,-6.9603,-6.961,-6.9703,-6.9724,-6.9788,-6.9813,-6.9845,-6.9872,-6.9947,-6.999,-7.0003,-7.003,-7.0082,-7.0128,-7.0132,-7.0151,-7.0175,-7.0176,-7.0064,-7.0049,-7.0035,-7.0017,-7.0179,-7.018,-7.0291,-7.0292,-7.0293]}]]